Location: Pedholt
(56.0260°N, 10.2097°E)
Time: 07:04:51
(UTC+00:00)

Transit 2A Rocket - Pass Details

Date: 30 July 2021
Orbit: 586 x 917 km, 66.7° (Epoch: 24 September)

Event Time Altitude Azimuth Distance (km) Brightness Sun altitude
Rises 13:34:56 0° 187° (S) 2,861 8.5 45.2°
Reaches altitude 10° 13:37:19 10° 176° (S) 1,995 7.7 44.9°
Maximum altitude 13:41:11 29° 116° (ESE) 1,202 6.2 44.5°
Drops below altitude 10° 13:45:21 10° 57° (ENE) 2,158 7.0 44.1°
Sets 13:48:02 0° 47° (NE) 3,142 7.7 43.8°
